カタログに戻る

NORSAT 2

運用中科学SSO
NORAD 42828·PAYLOAD·🇳🇴 Norway

打ち上げ Jul 14, 2017 から Baikonur Cosmodrome

Loading…

次のパス (今後24時間)

TLE

最新Source: Space-Track

元期: Sep 14, 2026, 11:10 UTC

1 42828U 17042D   26257.46532758  .00007816  00000-0  33025-3 0  9998
2 42828  97.4105  69.6328 0010525  96.9280 263.3155 15.23465714501327

AllMySatでNORSAT 2をリアルタイム追跡

Download on the App Store